Regional Weather Roundup
Issued by NWS

Home | Current Version | Previous Version | Text Only | Print | Product List | Glossary Off
Versions: 1 2 3 4 5 6 7 8 9 10 11 12 13 14 15 16 17 18 19 20 21 22 23 24 25 26 27 28 29 30 31 32 33 34 35 36 37 38 39 40 41 42 43 44 45 46 47 48 49 50

000
ASUS43 KMPX 020910
RWRMN
WEATHER ROUNDUP FOR MINNESOTA
NATIONAL WEATHER SERVICE TWIN CITIES/CHANHASSEN MN
400 AM CDT TUE SEP 02 2014


NOTE: "FAIR" INDICATES FEW OR NO CLOUDS BELOW 12,000 FEET WITH NO
SIGNIFICANT WEATHER AND/OR OBSTRUCTIONS TO VISIBILITY. N/A MEANS
CURRENT SKY AND/OR WEATHER CONDITIONS ARE NOT AVAILABLE.

MNZ060>063-068>070-021000-
   Twin Cities Metro

CITY           SKY/WX    TMP DP  RH WIND       PRES   REMARKS
TWIN CITIES    CLOUDY    64  59  83 SW7       29.83R
ST PAUL        CLOUDY    64  60  87 CALM      29.83R
CRYSTAL        CLOUDY    64  58  80 W7        29.82R
BLAINE         CLOUDY    64  63  94 SW6       29.82R
LAKEVILLE      CLOUDY    61  57  88 W7        29.84S
EDEN PRAIRIE   CLOUDY    62  59  90 W6        29.83R
SOUTH ST PAUL  CLOUDY    64  58  83 SW3       29.82S
LAKE ELMO      MOCLDY    61  59  94 CALM      29.83S
$$
MNZ001>005-007-008-013>017-022>024-027-028-021000-
   Northwest Minnesota

CITY           SKY/WX    TMP DP  RH WIND       PRES   REMARKS
BEMIDJI        CLEAR     53  49  87 W7        29.80R
HALLOCK        CLEAR     48  46  93 S3        29.74S
ROSEAU           N/A     52  46  82 SW6       29.74S
WARROAD        CLEAR     52  48  87 SW8       29.74S
THIEF RVR FALL MOCLDY    52  50  93 SW7       29.78R
CROOKSTON      PTCLDY    52  48  87 SW3       29.78S
FOSSTON        CLEAR     48  46  93 S7        29.81R
DETROIT LAKES  CLEAR     55  54  94 SW5       29.83S
MOORHEAD       CLEAR     54  54 100 SW5       29.82S
PARK RAPIDS    PTCLDY    50  48  93 W3        29.82R
MAHNOMEN       FAIR      48  48  99 S6        29.81S
$$
MNZ006-009>011-018-025>026-021000-
   North Central Minnesota

CITY           SKY/WX    TMP DP  RH WIND       PRES   REMARKS
BAUDETTE       CLEAR     51  49  92 SW3       29.73R
FLAG ISLAND    CLEAR     55  50  82 W13       29.70R
INTL FALLS     CLEAR     50  49  96 SW5       29.74R
WASKISH        CLEAR     61  55  82 S5G18     29.76S
BIG FORK         N/A     46  46 100 CALM      29.78S FOG
LONGVILLE      PTCLDY    52  52 100 CALM      29.80R
GRAND RAPIDS   PTCLDY    54  48  82 CALM      29.80R
CRANE LAKE     CLEAR     45  45 100 CALM      29.76S
ORR            CLEAR     52  48  87 CALM      29.75R
COOK           CLEAR     52  50  93 CALM      29.78R
WALKER         FAIR      51  48  89 W5        29.80S
$$
MNZ012-019>021-037-021000-
   Northeast Minnesota

CITY           SKY/WX    TMP DP  RH WIND       PRES   REMARKS
DULUTH         MOCLDY    56  51  84 W8        29.80R
ELY            CLEAR     50  48  93 SW5       29.77R
HIBBING        FOG       48  46  93 CALM      29.79R VSB 1/4
EVELETH        CLEAR     50  50 100 W5        29.80R FOG
DULUTH HARBOR  MOCLDY    57  54  88 SW8       29.80R
TWO HARBORS    PTCLDY    54  48  82 CALM      29.77R
SILVER BAY     CLEAR     54  54 100 CALM      29.75R
GRAND MARAIS     N/A     59  55  87 SW7       29.74R
G MARAIS ARPRT MOCLDY    54  48  82 W6        29.77R
$$
MNZ029>031-032-039>041-046>048-054>057-064-021000-
   West Central Minnesota

CITY           SKY/WX    TMP DP  RH WIND       PRES   REMARKS
FERGUS FALLS   CLEAR     54  52  94 W3        29.84S
WHEATON        CLEAR     54  52  94 W5        29.86S
MORRIS         PTCLDY    55  54  94 NW5       29.84S
ALEXANDRIA     MOCLDY    57  54  89 W3        29.86R
ELBOW LAKE     FAIR      53  53  99 W3        29.84S
WADENA         PTCLDY    52  52 100 W5        29.83R
GLENWOOD       CLOUDY    55  54  94 W5        29.86R
APPLETON       MOCLDY    55  52  88 W5        29.85R
BENSON         CLOUDY    55  55 100 CALM      29.85S
ORTONVILLE     PTCLDY    59  54  82 W6        29.85S
MADISON        MOCLDY    57  55  94 W6        29.86R
WILLMAR        FAIR      59  55  88 W3        29.87R
$$
MNZ033>034-036-042>043-049>051-058-059-021000-
   Central Minnesota

CITY           SKY/WX    TMP DP  RH WIND       PRES   REMARKS
ST CLOUD       CLOUDY    59  55  87 CALM      29.83R
SAUK CENTRE    FAIR      57  55  94 CALM      29.85R
PAYNESVILLE    HVY RAIN  55  54  99 SW3       29.85R
AITKIN         MOCLDY    55  50  82 SW3       29.81R
PINE RIVER     MOCLDY    48  48 100 CALM      29.86R
BRAINERD       MOCLDY    51  51 100 S5        29.83R
STAPLES        MOCLDY    50  50 100 CALM      29.83R
LONG PRAIRIE   FAIR      55  52  88 CALM      29.84R
LITTLE FALLS   CLOUDY    52  52 100 CALM      29.84R
LITCHFIELD     CLOUDY    61  59  94 CALM      29.86R
BUFFALO        CLOUDY    62  58  87 SW5       29.85R
MAPLE LAKE     CLOUDY    62  59  91 SW3       29.85R
$$
MNZ037-044-045-052-053-021000-
   East Central Minnesota

CITY           SKY/WX    TMP DP  RH WIND       PRES   REMARKS
PRINCETON      CLOUDY    59  55  88 SW1       29.83R
MORA           CLOUDY    54  50  87 CALM      29.85R
CAMBRIDGE      CLOUDY    61  52  72 N5        29.82R
RUSH CITY      CLOUDY    55  53  93 CALM      29.83R
MOOSE LAKE     CLOUDY    50  50 100 SW3       29.81R
HINCKLEY       FAIR      52  52 100 CALM      29.82R
CLOQUET        MOCLDY    54  50  87 W6        29.81R
MCGREGOR       MOCLDY    52  50  93 CALM      29.82R
$$
MNZ071>073-080-081-089-090-097-098-021000-
   Southwest Minnesota

CITY           SKY/WX    TMP DP  RH WIND       PRES   REMARKS
MONTEVIDEO     CLOUDY    59  54  82 NW5       29.87R
GRANITE FALLS  CLOUDY    57  55  94 SW6       29.88R
CANBY          MOCLDY    59  55  85 W8        29.89R
MARSHALL       CLOUDY    61  52  72 W10       29.87R
REDWOOD FALLS  CLOUDY    62  55  77 W7        29.87R
OLIVIA         CLOUDY    59  54  82 CALM      29.86R
PIPESTONE      MOCLDY    61  54  77 NW6       29.91R
WINDOM         RAIN      61  55  82 S7        29.92R
WORTHINGTON    CLOUDY    59  55  88 W8        29.94R
JACKSON        CLOUDY    61  54  77 W6        29.93R
TRACY          CLOUDY    63  55  75 W5        29.89R
SLAYTON        CLOUDY    61  54  77 CALM      29.92R
$$
MNZ065>067-074>077-082>085-091>093-021000-
   South Central Minnesota

CITY           SKY/WX    TMP DP  RH WIND       PRES   REMARKS
MANKATO        CLOUDY    63  54  72 W7        29.86R
NEW ULM        LGT RAIN  61  57  88 W7        29.87R
ST JAMES       DRIZZLE   63  57  82 SW9       29.91R
FAIRMONT       CLOUDY    63  54  72 W10       29.90R
GLENCOE        CLOUDY    62  55  79 W3        29.85R
FARIBAULT      CLOUDY    63  57  82 SW3       29.86R
OWATONNA       CLOUDY    61  57  88 SW3       29.86S
WASECA         CLOUDY    55  52  88 SW5       29.88S
ALBERT LEA     CLOUDY    61  57  88 SW3       29.88R
$$
MNZ078>079-086>088-094>096-021000-
   Southeast Minnesota

CITY           SKY/WX    TMP DP  RH WIND       PRES   REMARKS
ROCHESTER      MOCLDY    58  54  86 W6        29.87F
RED WING       MOCLDY    57  57 100 CALM      29.82F
STANTON        CLOUDY    61  58  90 SW5       29.83S
DODGE CENTER   MOCLDY    59  57  94 SW6       29.86S
WINONA         PTCLDY    59  57  94 CALM      29.85F
AUSTIN         CLOUDY    57  55  94 S3        29.87R
PRESTON        PTCLDY    58  57  96 CALM      29.87F
$$
ABBREVIATIONS USED IN REMARKS
   TC - TEMPERATURES IN CELSIUS
  WCI - WIND CHILL INDEX
   HX - HEAT INDEX
  VSB - VISIBILITY
$$


USA.gov is the U.S. government's official web portal to all federal, state and local government web resources and services.